OBJECT Z, 57189

Orbit data source: Space-Track

You're viewing an uncataloged RSO

Recently launched and/or uncataloged RSOs may have evolving metadata. Metadata may include the following, but is not limited to: Owner, Manufacturer, Bus, Motor, and Mission.

OBJECT Z, 57189 is a satellite in SSO that was launched on Tue, 27 Jun 2023 UTC via a SOYUZ-2-1B launch vehicle from the Vostochny Cosmodrome (VOSTO). Unknown objects in Earth's orbit typically refer to objects detected orbiting the Earth but have not yet been identified or cataloged. These objects could be anything from previously untracked satellites, spent rocket stages, debris from satellite collisions, or even natural meteoroids temporarily captured by Earth's gravity.

Loading next visibility...
Identifier
57189, 2023-091Z
Orbit
SSO
Country
Flag of TBDTBD
Related business
Flag of RUOOO VIZARD (RU)
Manufacturer
Sputniks
Mission
Operational Commercial Com/Met
Bus & Motor
CUBESAT 3U, Unknown motor
Mass
2.98 kg wet, 2.98 kg dry
Launch date (UTC)
2023-06-27 (3 years ago)
Launch vehicle
SOYUZ-2-1B
Launch site
Vostochny Cosmodrome (VOSTO)
Object type
Unknown
Shape & HBR
Box, 0.2 m
Radar Cross Section
0.035 m², Medium (>0.1 m² and < 1m²)

Expand to show TLE details & history
Last TLE update: 3 hours ago

TLE from 3 hours ago
0 OBJECT Z
1 57189U 23091Z   26257.19073211  .00013617  00000-0  35898-3 0  9995
2 57189  97.5007 328.5888 0008096 110.4256 249.7859 15.38594877178360
Epoch: 2026-09-14T04:34Z
TLE epoch observation values (Epoch: 2026-09-14T04:34:39.254Z)
Latitude
-0.00001°
Longitude
-93.24934°
Altitude
455.291 km
Speed
7.638 km/s
True Right ascension
21h 54m 21s
True Declination
0° 00' 00"
Sunlit
Object was in full shadow at epoch
Visualization orbit readout
Latitude
Unknown
Longitude
Unknown
Altitude
Unknown
Speed
Unknown
Apparent Right ascension
Unknown
Apparent Declination
Unknown
Sunlit
N/A
Visualization observer readout
Local Sidereal Time
00:23:32
Azimuth
Unknown
Elevation
Unknown
Doppler factor
Unknown
Orbital elements
Apogee altitude
452.735 km
Perigee altitude
441.683 km
Semi-major axis
6,825.346 km
Eccentricity
0.00081
Inclination
97.5007°
RAAN
328.5888°
Arg. of periapsis
110.4256°
True anomaly
249.69887°
Mean anomaly
249.7859°
Eccentric anomaly
249.74238°
Mean motion
3.84907 °/min
Orbital period
93.53 mins
BSTAR
0.00035898
Loading maneuver chart data...
Computing Atmospheric mass density...
Loading historical data...
Loading historical data...
Loading historical data...
Loading historical data...
Loading historical data...
Loading historical data...
Loading historical data...

Documentation

Showing up to 5 results
|